User: anonymous   Login
Location: Fishcreek Rd Observing Site
(41.1865°N, 81.4271°W)
Time: 08:13:36
(UTC-05:00)
Language:

Iridium 45 - Orbit

View from above orbital plane
View from above orbital plane
View from above satellite
View from above satellite

Ground track
Ground track

The orbit data is extracted from the following two-line orbital elements,

1 25104U 97082A   17346.73903127 +.00000112 +00000-0 +32779-4 0  9997
2 25104 086.3978 212.5741 0002837 083.8150 276.3369 14.34221962045708
Epoch (UTC): 12 December 2017 17:44:12
Eccentricity: 0.0002837
inclination: 86.3978°
perigee height: 775 km
apogee height: 779 km
right ascension of ascending node: 212.5741°
argument of perigee: 83.8150°
revolutions per day: 14.34221962
mean anomaly at epoch: 276.3369°
orbit number at epoch: 4570

The dashed part of the orbit path shows where the satellite is in the earth's shadow,  

DLR